Regional Weather Roundup
Issued by NWS Cleveland, OH

Home | Current Version | Previous Version | Text Only | Print | Product List | Glossary On
Versions: 1 2 3 4 5 6 7 8 9 10 11 12 13 14 15 16 17 18 19 20 21 22 23 24 25 26 27 28 29 30 31 32 33 34 35 36 37 38 39 40 41 42 43 44 45 46 47 48 49 50
000
ASUS41 KCLE 041610
RWRCLE
OHIO REGIONAL WEATHER ROUNDUP
NATIONAL WEATHER SERVICE WILMINGTON, OH
1100 AM EST WED MAR 04 2015

NOTE: "FAIR" INDICATES FEW OR NO CLOUDS BELOW 12,000 FEET WITH NO
SIGNIFICANT WEATHER AND/OR OBSTRUCTIONS TO VISIBILITY.

OHZ001>008-015>018-024>027-034-035-043-044-041700-
   NORTHWEST OHIO

CITY           SKY/WX    TMP DP  RH WIND       PRES   REMARKS
DEFIANCE       CLOUDY    34  24  67 NW10      29.98S WCI  26
FINDLAY        CLOUDY    33  25  72 W6        29.96S WCI  28
TOLEDO EXPRESS CLOUDY    32  23  69 W12       29.96F WCI  23
TOLEDO EXEC    CLOUDY    34  24  67 W9        29.97F WCI  27
LIMA           CLOUDY    33  25  72 NW7       29.95F WCI  27
$$

OHZ009>014-019>023-028>033-038-089-041700-
   NORTHEAST OHIO

CITY           SKY/WX    TMP DP  RH WIND       PRES   REMARKS
CLE-HOPKINS    CLOUDY    32  24  72 W3        29.97F
CLE-LAKEFRONT  CLOUDY    32  27  81 SW3       29.95F
CUY CO. ARPT   NOT AVBL
LORAIN-ELYRIA  CLOUDY    32  24  72 NW7       29.95F WCI  26
ASHTABULA      CLOUDY    31  22  69 VRB6      29.95S WCI  25
AKRON-CANTON   CLOUDY    35  28  75 W9        29.92F WCI  28
WOOSTER        CLOUDY    32  27  81 NW12      29.94F WCI  23
MANSFIELD      CLOUDY    32  25  75 NW7       29.94S WCI  26
YOUNGSTOWN     CLOUDY    33  28  81 NW9       29.91F WCI  25
$$

OHZ042-051>053-060>062-070>072-077>081-041700-
  SOUTHWEST OHIO

CITY           SKY/WX    TMP DP  RH WIND       PRES   REMARKS
CINC-COVINGTON CLOUDY    36  32  85 NW7       29.99R FOG
CINC-LUNKEN    CLOUDY    36  32  85 N7        30.01R
HAMILTON       CLOUDY    36  31  82 NW6       30.00S
DAYTON         CLOUDY    35  30  82 NW8       29.98F HAZE    WCI  29
WRIGHT-PAT AFB PTSUNNY   34  32  93 N7        29.95F FOG     WCI  28
DAYTON GENERAL CLOUDY    35  31  85 N7        29.96F WCI  29
WILMINGTON     CLOUDY    34  31  88 N6        29.95F FOG     WCI  29
$$

OHZ036-037-039>041-045>050-054>059-063>069-073>076-082>088-041700-
  CENTRAL AND SOUTHEAST OHIO

CITY           SKY/WX    TMP DP  RH WIND       PRES   REMARKS
COLUMBUS       CLOUDY    35  34  96 NW7       29.96R FOG     WCI  29
OSU AIRPORT    CLOUDY    35  30  82 NW8       29.96R HAZE    WCI  29
BOLTON FIELD   CLOUDY    34  32  93 NW7       29.96S FOG     WCI  28
RICKENBACK AFB NOT AVBL
NEWARK         CLOUDY    35  30  82 NW8       29.95R WCI  29
MARION         CLOUDY    33  27  78 NW8       29.97R WCI  26
LANCASTER      CLOUDY    35  33  92 NW7       29.97S FOG     WCI  29
ZANESVILLE     CLOUDY    35  31  85 NW6       29.96R FOG
NEW PHILLY     CLOUDY    36  32  85 NW7       29.95S FOG
$$


USA.gov is the U.S. government's official web portal to all federal, state and local government web resources and services.